User: anonymous   Login
Location: Zagreb
(45.8000°N, 16.0000°E)
Time: 20:26:24
(UTC+01:00)
Language:

Transit 2A - Orbit

View from above orbital plane
View from above orbital plane
View from above satellite
View from above satellite

Ground track
Ground track

The orbit data is extracted from the following two-line orbital elements,

1    45U 60007A   22331.67554731  .00000114  00000-0  55385-4 0  9997
2    45  66.6934 186.7282 0251775  23.8645 337.3888 14.33965696250755
Epoch (UTC): 27 November 2022 16:12:47
Eccentricity: 0.0251775
inclination: 66.6934°
perigee height: 598 km
apogee height: 958 km
right ascension of ascending node: 186.7282°
argument of perigee: 23.8645°
revolutions per day: 14.33965696
mean anomaly at epoch: 337.3888°
orbit number at epoch: 25075

The dashed part of the orbit path shows where the satellite is in the earth's shadow,  

DLR